FW6569 Weather Reports


Display with metric or nautical units.
time (UTC)temp
F
wind
direction
speed
MPH
gust
MPH
rain 1hr
in
rain 24hr
in
rain mn
in
humidity
%
barometer
mb
20260504042524 55 183 6.0 9.0 0.00 0.00 0.00 60 1012.6
20260504041525 55 193 6.0 7.0 0.00 0.00 0.00 60 1012.8
20260504040524 55 192 7.0 9.0 0.00 0.00 0.00 60 1012.9
20260504035545 55 198 6.0 8.0 0.00 0.00 0.00 60 1013.1
20260504034524 55 193 5.0 7.0 0.00 0.00 0.00 60 1013.2
20260504033524 55 183 6.0 8.0 0.00 0.00 0.00 59 1013.2
20260504032545 55 191 6.0 8.0 0.00 0.00 0.00 60 1013.3
20260504031544 55 193 5.0 7.0 0.00 0.00 0.00 60 1013.3
20260504030525 56 190 5.0 7.0 0.00 0.00 0.00 59 1013.4
20260504025525 56 203 5.0 7.0 0.00 0.00 0.00 58 1013.4
20260504024525 56 192 5.0 7.0 0.00 0.00 0.00 58 1013.4
20260504023525 57 194 6.0 8.0 0.00 0.00 0.00 57 1013.4
20260504022524 57 206 7.0 9.0 0.00 0.00 0.00 56 1013.4
20260504021524 57 203 6.0 8.0 0.00 0.00 0.00 57 1013.4
20260504020525 57 201 7.0 8.0 0.00 0.00 0.00 56 1013.3
20260504015524 57 196 7.0 12.0 0.00 0.00 0.00 56 1013.1
20260504014525 57 206 7.0 9.0 0.00 0.00 0.00 57 1013.1
20260504013605 57 213 7.0 10.0 0.00 0.00 0.00 57 1013.0
20260504012525 56 207 7.0 10.0 0.00 0.00 0.00 59 1013.0
20260504011525 57 197 7.0 11.0 0.00 0.00 0.00 59 1012.9
20260504010525 56 197 7.0 9.0 0.00 0.00 0.00 59 1013.1
20260504005525 55 193 6.0 8.0 0.00 0.00 0.00 61 1013.1
20260504004525 55 197 5.0 8.0 0.00 0.00 0.00 63 1012.9
20260504003525 54 194 7.0 9.0 0.00 0.00 0.00 66 1012.7
20260504002545 55 186 6.0 8.0 0.00 0.00 0.00 66 1013.0
20260504001525 56 204 7.0 11.0 0.00 0.00 0.00 60 1013.3
20260504000525 56 209 9.0 11.0 0.00 0.00 0.00 61 1013.7
20260503235525 56 191 7.0 11.0 0.00 0.00 0.00 58 1013.3
20260503234525 57 201 7.0 9.0 0.00 0.00 0.00 55 1013.2
20260503233525 58 200 6.0 7.0 0.00 0.00 0.00 53 1013.5
20260503232525 59 178 6.0 8.0 0.00 0.00 0.00 49 1013.4
20260503231545 59 188 7.0 9.0 0.00 0.00 0.00 48 1013.5
20260503230525 59 183 8.0 11.0 0.00 0.00 0.00 47 1013.4
20260503225525 60 202 9.0 13.0 0.00 0.00 0.00 46 1013.4
20260503224525 60 199 11.0 18.0 0.00 0.00 0.00 45 1013.6
20260503223545 60 209 11.0 17.0 0.00 0.00 0.00 44 1013.9
20260503222525 61 200 8.0 9.0 0.00 0.00 0.00 44 1013.8
20260503221525 61 202 10.0 13.0 0.00 0.00 0.00 43 1013.8
20260503220525 61 207 13.0 17.0 0.00 0.00 0.00 42 1014.1
20260503215525 61 213 8.0 11.0 0.00 0.00 0.00 42 1014.2
20260503214525 61 205 10.0 14.0 0.00 0.00 0.00 42 1014.4
20260503213525 61 209 11.0 17.0 0.00 0.00 0.00 40 1014.7
20260503212525 62 198 11.0 16.0 0.00 0.00 0.00 39 1015.0
20260503211525 63 210 10.0 14.0 0.00 0.00 0.00 39 1015.2
20260503210525 64 217 10.0 14.0 0.00 0.00 0.00 39 1015.3
20260503205545 63 216 12.0 17.0 0.00 0.00 0.00 38 1015.4
20260503204525 62 203 11.0 14.0 0.00 0.00 0.00 38 1015.5
20260503203526 64 190 10.0 15.0 0.00 0.00 0.00 38 1015.5
20260503202525 63 218 10.0 17.0 0.00 0.00 0.00 38 1015.7
20260503201525 63 216 10.0 14.0 0.00 0.00 0.00 38 1016.0
20260503200526 63 218 9.0 15.0 0.00 0.00 0.00 37 1016.0
20260503195545 63 200 13.0 20.0 0.00 0.00 0.00 37 1016.0
20260503194525 63 198 11.0 13.0 0.00 0.00 0.00 36 1016.1
20260503193525 63 205 9.0 16.0 0.00 0.00 0.00 37 1016.4
20260503192546 62 197 12.0 17.0 0.00 0.00 0.00 38 1016.5
20260503191546 62 213 13.0 18.0 0.00 0.00 0.00 38 1016.7
20260503190545 60 215 11.0 16.0 0.00 0.00 0.00 38 1017.1
20260503185525 62 215 13.0 17.0 0.00 0.00 0.00 37 1017.2
20260503184526 62 203 12.0 21.0 0.00 0.00 0.00 39 1017.6
20260503183525 62 239 8.0 12.0 0.00 0.00 0.00 37 1017.8
20260503182526 61 218 13.0 18.0 0.00 0.00 0.00 38 1017.9
20260503181526 61 208 9.0 13.0 0.00 0.00 0.00 39 1018.1
20260503180526 61 232 9.0 15.0 0.00 0.00 0.00 38 1018.1
20260503175546 60 207 10.0 18.0 0.00 0.00 0.00 39 1018.2
20260503174526 60 208 12.0 18.0 0.00 0.00 0.00 37 1018.2
20260503173526 61 220 8.0 10.0 0.00 0.00 0.00 39 1018.4
20260503172526 60 229 8.0 13.0 0.00 0.00 0.00 38 1018.6
20260503171526 60 212 11.0 17.0 0.00 0.00 0.00 38 1018.7
20260503170526 60 207 9.0 15.0 0.00 0.00 0.00 38 1018.8
20260503150526 56 225 5.0 9.0 0.00 0.00 0.00 48 1020.5
20260503130526 47 229 5.0 8.0 0.00 0.00 0.00 63 1020.5
20260503110526 35 194 2.0 3.0 0.00 0.00 0.00 92 1019.8
20260503081526 32 0.0 0.0 0.00 0.00 0.00 96 1019.2
20260503080527 32 0.0 0.0 0.00 0.00 0.00 95 1019.3
20260503072526 32 0.0 0.0 0.00 0.00 0.00 95 1019.3
20260503071527 32 0.0 0.0 0.00 0.00 0.00 95 1019.2
20260503070547 32 0.0 0.0 0.00 0.00 0.00 94 1019.2
20260503054527 33 0.0 0.0 0.00 0.00 0.00 93 1019.8
20260503053547 34 0.0 0.0 0.00 0.00 0.00 93 1019.8
20260503052526 34 0.0 0.0 0.00 0.00 0.00 93 1019.9
20260503051547 34 0.0 0.0 0.00 0.00 0.00 93 1019.8
20260503050526 34 0.0 0.0 0.00 0.00 0.00 92 1019.7
20260503045527 34 0.0 0.0 0.00 0.00 0.00 92 1019.7
20260503044527 35 0.0 0.0 0.00 0.00 0.00 92 1019.7
20260503043527 35 0.0 0.0 0.00 0.00 0.00 92 1019.6